Date,TemperatureHighF,TemperatureAvgF,TemperatureLowF,DewpointHighF,DewpointAvgF,DewpointLowF,HumidityHigh,HumidityAvg,HumidityLow,PressureMaxIn,PressureMinIn,WindSpeedMaxMPH,WindSpeedAvgMPH,GustSpeedMaxMPH,PrecipitationSumIn
2012-1-1,53.8,43.8,34.9,38.8,20.3,7.6,70,40,25,30.24,29.59,24,9,24,0.00
2012-1-2,34.9,29.5,23.4,10.4,5.5,-0.2,43,36,30,30.39,30.21,26,9,26,0.00
2012-1-3,37.2,27.9,18.3,12.8,4.8,-0.3,54,38,22,30.42,30.03,9,1,9,0.00
2012-1-4,50.7,39.6,30.6,26.4,18.9,9.7,59,43,36,30.09,29.94,15,3,15,0.00
2012-1-5,61.9,46.3,30.4,26.5,23.7,21.8,74,44,25,30.03,29.77,10,2,10,0.00
2012-1-6,66.6,52.6,40.8,28.6,24.3,19.6,49,35,17,29.80,29.62,14,1,14,0.00
2012-1-7,50.5,44.4,39.6,27.1,22.2,18.3,51,42,29,30.12,29.80,11,2,11,0.00
2012-1-8,45.5,39.8,29.8,30.1,25.4,20.5,75,57,48,30.21,30.12,8,1,8,0.00
2012-1-9,47.8,37.4,29.3,30.8,23.2,17.5,84,59,35,30.15,30.00,8,1,8,0.00
2012-1-10,51.4,37.4,27.5,29.0,23.5,20.2,78,59,34,30.00,29.65,7,0,7,0.00
2012-1-11,51.8,44.1,37.2,42.3,33.1,24.7,96,68,38,29.65,29.41,13,2,13,0.04
2012-1-12,41.4,23.2,16.5,32.0,12.2,2.1,81,63,49,29.83,29.56,23,8,23,0.00
2012-1-13,24.4,19.6,14.9,9.8,6.0,2.5,72,55,46,30.03,29.83,12,2,12,0.00
2012-1-14,36.1,26.6,14.4,26.4,13.6,7.5,86,59,40,30.18,29.88,10,2,11,0.00
2012-1-15,44.1,32.9,20.5,26.9,20.7,15.3,87,63,41,30.27,29.91,11,2,11,0.00
2012-1-16,64.2,53.5,38.8,54.4,41.9,26.5,81,65,50,29.91,29.59,13,2,13,0.00
2012-1-17,62.8,39.1,22.8,57.2,30.5,9.1,98,72,52,30.24,29.50,25,7,25,0.87
2012-1-18,34.9,25.5,16.5,14.1,10.3,6.6,71,53,38,30.27,29.88,10,2,10,0.00
2012-1-19,37.4,29.9,20.1,21.2,15.0,7.5,61,54,45,30.03,29.80,14,3,14,0.00
2012-1-20,30.4,25.0,18.3,26.7,14.5,3.3,90,65,50,30.06,29.77,13,5,13,0.00
2012-1-21,32.5,27.4,22.5,26.6,20.8,15.0,88,76,63,30.12,29.91,12,5,14,0.00
2012-1-22,52.7,39.8,29.5,52.2,39.1,26.6,98,97,89,29.92,29.33,10,3,15,0.05
2012-1-23,54.0,43.0,31.5,53.4,30.7,21.6,98,63,45,29.98,29.33,16,5,24,0.00
2012-1-24,45.7,34.3,25.5,25.7,22.6,19.8,83,64,41,30.21,29.98,7,1,9,0.00
2012-1-25,35.4,34.1,31.1,34.9,31.2,23.8,98,90,74,30.21,29.86,7,2,11,0.66
2012-1-26,40.6,37.5,35.1,40.1,37.0,34.6,98,98,98,29.86,29.59,7,1,9,0.17
2012-1-27,42.4,38.0,32.9,37.2,33.7,30.7,98,85,65,29.95,29.71,9,1,15,0.04
2012-1-28,40.1,35.1,29.7,38.1,22.2,13.0,98,62,34,30.21,29.89,12,4,17,0.00
2012-1-29,46.2,37.9,32.0,18.6,15.5,13.4,57,40,29,30.15,30.09,10,3,15,0.00
2012-1-30,63.0,47.1,30.7,33.5,26.0,18.5,69,46,26,30.09,29.86,6,1,10,0.00
2012-1-31,65.8,56.6,45.1,51.4,37.9,24.8,80,50,39,29.92,29.80,7,1,10,0.00
2012-2-1,59.4,50.8,40.5,51.2,37.3,29.2,92,63,35,30.06,29.89,7,1,10,0.00
2012-2-2,60.6,45.7,33.1,39.2,30.3,24.2,88,59,25,30.21,30.06,6,1,8,0.00
2012-2-3,54.1,45.5,36.1,46.8,35.3,29.0,98,70,42,30.21,30.01,9,3,14,0.71
2012-2-4,53.1,48.0,43.9,52.3,47.4,43.4,98,98,98,30.04,29.89,10,2,15,0.12
2012-2-5,45.7,41.6,34.9,43.4,37.9,31.9,98,88,60,30.18,30.01,7,2,11,0.00
2012-2-6,45.3,36.7,31.1,38.8,30.8,27.0,98,81,50,30.18,30.09,10,2,13,0.00
2012-2-7,50.9,38.2,28.9,36.3,30.5,26.6,95,76,45,30.24,30.09,7,1,10,0.00
2012-2-8,36.5,34.5,32.9,34.2,28.6,22.7,98,80,59,30.33,30.24,7,2,8,0.05
2012-2-9,40.3,35.9,30.9,29.0,24.0,19.5,77,62,44,30.30,30.06,5,1,8,0.00
2012-2-10,41.9,34.1,22.6,38.7,26.9,9.3,92,75,55,30.18,29.89,12,4,17,0.00
2012-2-11,27.1,22.8,17.4,14.6,3.4,-2.3,74,44,31,30.45,30.18,16,6,28,0.00
2012-2-12,35.8,25.4,16.7,20.7,2.2,-2.7,63,37,19,30.48,30.18,9,4,12,0.00
2012-2-13,36.0,31.5,25.0,30.9,20.1,9.1,91,64,41,30.18,29.77,8,1,11,0.00
2012-2-14,41.2,35.9,32.2,34.5,31.3,28.7,92,84,68,29.92,29.74,7,1,9,0.20
2012-2-15,47.5,41.8,32.4,46.9,40.8,29.5,98,96,89,29.98,29.83,6,1,9,0.13
2012-2-16,46.6,42.8,34.3,45.9,39.3,30.6,98,88,67,30.12,29.86,9,3,13,0.04
2012-2-17,54.0,40.3,28.4,39.2,28.2,23.8,98,66,32,30.12,29.98,6,0,10,0.00
2012-2-18,46.2,40.2,36.3,26.7,23.9,19.4,64,53,38,30.09,30.01,9,4,12,0.00
2012-2-19,42.8,35.7,29.5,22.9,19.2,15.6,67,52,34,30.06,29.98,10,2,14,0.00
2012-2-20,46.8,30.4,23.9,25.6,20.0,17.3,81,66,38,30.12,30.04,8,2,10,0.00
2012-2-27,48.4,45.6,41.4,21.0,15.6,7.3,40,30,21,30.33,30.30,8,2,13,0.00
2012-2-28,60.1,48.9,36.1,57.4,28.9,16.9,92,47,33,30.30,29.59,8,3,11,0.04
2012-2-29,68.2,59.2,50.7,61.5,30.6,0.3,97,44,7,29.74,29.50,20,6,34,0.13
2012-3-1,66.6,52.7,36.7,29.8,25.9,22.4,61,37,20,29.83,29.47,10,2,14,0.00
2012-3-2,59.7,46.1,35.8,57.3,35.0,25.7,94,66,45,29.74,29.24,19,4,31,0.29
2012-3-3,48.6,39.4,31.3,29.0,19.2,12.5,74,46,29,29.83,29.74,13,5,18,0.00
2012-3-4,49.3,39.0,28.8,30.6,20.9,14.2,75,49,31,29.98,29.74,12,2,20,0.00
2012-3-5,51.3,40.3,28.9,27.1,18.9,16.2,73,44,27,30.33,29.98,11,3,17,0.00
2012-3-6,73.6,58.3,40.5,30.9,22.6,14.3,39,27,11,30.09,29.86,9,3,19,0.00
2012-3-7,73.8,64.5,57.0,50.9,39.5,25.7,62,40,28,29.95,29.83,9,3,15,0.00
2012-3-8,64.9,51.0,39.4,59.9,44.2,24.6,98,79,53,30.15,29.80,14,4,23,0.33
2012-3-13,73.2,67.9,64.8,54.6,51.6,45.9,68,57,38,29.95,29.92,4,1,6,0.00
2012-3-14,86.4,71.2,55.0,62.2,55.2,49.9,95,61,30,29.98,29.83,7,1,13,0.00
2012-3-15,70.5,64.6,59.7,59.0,55.6,54.0,83,73,66,29.98,29.92,3,0,6,0.00
2012-3-19,81.9,74.3,59.7,55.2,51.8,49.3,83,46,36,29.98,29.71,8,3,13,0.00
2012-3-20,84.2,70.4,63.5,56.5,52.4,38.8,74,55,23,29.86,29.74,9,2,15,0.00
2012-3-21,82.9,73.1,66.2,53.9,50.7,46.2,62,47,29,29.92,29.80,10,2,16,0.00
2012-3-22,72.7,61.5,54.3,61.0,56.3,51.8,98,85,48,29.95,29.83,14,1,17,0.16
2012-3-23,68.0,57.3,54.3,58.3,53.0,40.8,98,87,39,29.86,29.68,11,1,17,0.13
2012-3-24,74.3,62.3,52.3,57.8,51.8,40.5,98,73,33,29.83,29.68,8,2,12,0.04
2012-3-25,74.3,65.9,57.7,60.2,53.4,47.4,98,67,40,29.95,29.83,8,2,11,0.00
2012-3-26,74.7,63.3,54.3,58.0,48.1,38.0,94,61,40,30.06,29.95,10,3,13,0.00
2012-3-27,82.9,67.3,53.4,50.9,40.5,35.0,55,39,22,30.04,29.80,6,1,10,0.00
2012-3-28,84.2,71.2,61.7,53.8,41.4,16.6,70,40,9,29.92,29.83,7,1,10,0.00
2012-3-29,74.1,64.6,56.5,51.7,44.5,37.2,84,51,32,29.92,29.71,10,2,15,0.09
2012-3-30,85.6,70.0,55.4,58.2,50.5,43.1,85,53,27,29.74,29.59,11,2,14,0.00
2012-3-31,77.7,65.1,53.4,55.8,49.4,45.1,75,58,38,29.83,29.68,7,2,11,0.00
2012-4-1,88.3,68.6,58.1,62.6,54.0,45.2,90,63,31,29.68,29.47,7,0,9,0.00
2012-4-2,72.0,69.5,66.9,59.3,58.1,54.4,76,67,55,29.53,29.50,0,0,0,0.00
2012-4-3,85.1,75.4,60.6,64.0,55.7,47.8,87,55,29,29.77,29.65,9,1,14,0.00
2012-4-4,69.6,64.9,59.2,64.1,57.5,51.3,98,78,56,29.74,29.62,8,2,10,0.58
2012-4-5,61.2,55.0,50.0,60.1,45.7,29.2,98,76,34,29.95,29.59,10,3,14,0.21
2012-4-6,63.5,51.6,40.6,35.7,30.5,25.2,73,47,25,30.12,29.95,9,2,13,0.00
2012-4-7,73.4,56.8,39.6,47.2,37.1,29.8,87,53,23,30.15,30.04,8,1,11,0.00
2012-4-8,59.2,55.2,51.1,47.6,46.8,44.6,81,73,64,30.21,30.12,6,2,8,0.00
2012-4-10,65.8,55.9,44.2,26.3,17.2,6.7,49,23,10,30.12,30.01,10,3,15,0.00
2012-4-11,61.9,49.7,37.8,32.6,21.5,15.3,57,34,19,30.21,30.04,8,2,11,0.00
2012-4-12,68.2,53.0,34.7,37.4,27.2,17.8,80,43,15,30.18,29.98,10,1,13,0.00
2012-4-13,57.7,53.3,48.7,52.0,41.6,29.5,98,70,35,30.06,29.89,8,1,14,0.91
2012-4-14,75.0,62.6,52.7,73.7,59.5,52.0,98,90,70,29.98,29.68,8,1,12,0.17
2012-4-15,79.7,70.1,57.7,66.4,58.0,53.6,98,67,46,29.71,29.50,10,3,21,1.20
2012-4-16,73.2,60.3,52.5,57.2,44.2,36.2,98,61,29,30.12,29.59,13,3,21,0.00
2012-4-17,73.6,59.6,45.7,51.4,41.5,35.5,91,56,27,30.27,30.12,7,1,10,0.00
2012-4-18,77.9,62.9,46.8,50.7,41.0,32.4,87,51,21,30.12,29.89,6,1,9,0.00
2012-4-19,82.2,67.3,50.7,50.2,39.9,33.0,79,41,20,29.92,29.65,7,1,16,0.00
2012-4-20,62.6,54.6,48.9,54.6,43.7,34.5,94,68,41,29.92,29.59,8,3,12,0.04
2012-4-21,65.7,53.8,42.4,36.9,31.6,26.6,71,45,25,29.95,29.86,9,3,14,0.00
2012-4-22,58.5,51.6,47.1,51.8,39.4,21.6,98,67,34,30.01,29.77,9,2,15,0.08
2012-4-23,67.5,53.7,38.7,31.6,28.0,21.1,71,40,23,30.01,29.83,11,2,17,0.00
2012-4-26,84.6,75.6,61.5,54.1,43.8,36.6,54,33,23,29.92,29.68,9,3,15,0.00
2012-4-27,61.5,55.3,48.4,38.1,29.6,18.9,47,38,29,30.06,29.80,13,4,17,0.00
2012-4-28,84.4,66.3,54.7,66.9,55.6,37.4,98,72,42,29.92,29.71,13,1,17,1.08
2012-4-29,65.1,59.5,54.5,63.8,58.8,53.9,98,98,91,30.01,29.86,6,1,8,0.00
2012-4-30,73.6,67.4,61.9,66.5,62.9,57.9,98,86,58,29.89,29.83,7,1,11,0.04
2012-5-1,84.0,66.7,60.8,64.2,61.8,56.7,98,87,40,29.86,29.71,7,1,11,0.25
2012-5-2,86.2,73.5,68.5,64.1,61.9,58.8,79,68,40,29.83,29.71,7,1,10,0.00
2012-5-3,91.0,81.8,71.6,64.4,61.6,57.3,78,52,33,29.92,29.77,8,2,14,0.00
2012-5-4,86.4,75.2,68.7,72.5,66.9,61.9,98,77,51,29.95,29.71,7,0,11,0.25
2012-5-5,95.7,82.3,71.2,76.1,66.9,56.2,98,64,28,29.80,29.74,7,0,8,0.04
2012-5-6,98.1,83.9,71.4,71.0,62.6,50.8,88,54,22,29.80,29.68,6,0,8,0.00
2012-5-7,77.9,68.6,62.4,70.5,66.1,59.4,98,92,59,29.83,29.71,9,1,17,0.71
2012-5-8,69.8,61.7,57.4,62.4,52.9,39.5,98,76,34,29.89,29.80,6,1,9,0.00
2012-5-9,76.8,65.0,54.3,44.2,39.4,33.9,65,42,23,29.89,29.83,9,2,13,0.00
2012-5-10,79.9,65.8,51.6,52.0,42.1,34.5,80,47,22,29.92,29.83,7,1,8,0.00
2012-5-11,79.9,67.7,52.2,49.8,41.6,35.2,74,42,22,30.04,29.92,8,1,9,0.00
2012-5-12,82.8,70.8,58.5,55.4,43.9,35.1,75,41,20,30.09,30.01,7,0,9,0.00
2012-5-13,81.9,68.6,57.4,50.7,43.1,30.0,75,44,21,30.06,29.95,7,1,11,0.00
2012-5-14,84.4,69.4,55.2,43.2,35.1,22.5,52,31,13,30.01,29.89,9,1,11,0.00
2012-5-15,89.8,72.0,53.2,49.3,33.8,10.5,70,33,6,29.95,29.86,8,1,10,0.00
2012-5-16,83.3,71.1,58.5,52.5,38.7,22.1,70,35,12,29.95,29.86,8,2,11,0.00
2012-5-17,84.4,69.9,52.9,39.7,30.2,17.6,45,25,9,30.01,29.86,7,1,9,0.00
2012-5-18,92.5,74.1,54.9,54.4,44.5,31.2,68,39,12,29.92,29.80,8,1,10,0.00
2012-5-19,97.2,80.0,63.3,59.6,51.6,42.9,75,42,17,29.92,29.83,5,1,10,0.00
2012-5-20,97.9,79.4,67.6,61.2,54.0,44.0,68,45,17,29.98,29.86,8,1,13,0.00
2012-5-21,77.2,70.0,61.0,59.4,43.5,38.0,67,40,26,30.06,29.95,9,3,14,0.00
2012-5-22,85.1,69.3,53.1,52.7,40.0,27.0,79,40,13,29.98,29.77,8,1,9,0.00
2012-5-23,90.3,73.3,54.7,51.9,41.6,30.2,73,37,12,29.80,29.59,7,1,10,0.00
2012-5-24,96.1,79.5,60.8,52.6,44.7,27.4,59,33,9,29.68,29.50,9,2,15,0.00
2012-5-25,95.2,84.5,74.3,62.3,58.1,51.8,61,42,28,29.89,29.68,8,1,11,0.00
2012-5-26,100.4,85.9,71.1,64.4,58.7,51.6,74,43,21,29.95,29.83,7,1,9,0.00
2012-5-27,100.4,86.1,70.9,60.3,52.7,44.3,64,35,15,29.92,29.77,5,0,10,0.00
2012-5-28,102.2,87.4,73.6,59.6,50.6,25.2,58,32,7,29.80,29.65,8,1,12,0.00
2012-5-29,97.9,82.6,72.3,57.8,45.5,7.7,57,32,4,29.83,29.68,7,1,10,0.00
2012-5-30,90.9,74.8,63.7,59.5,42.4,19.8,80,37,8,29.89,29.74,5,1,10,0.08
2012-5-31,73.9,63.8,55.0,62.8,49.8,39.8,91,63,34,29.77,29.62,8,2,13,0.08
2012-6-1,74.8,61.1,49.8,52.2,39.3,29.6,91,50,21,29.86,29.74,10,3,16,0.00
2012-6-2,86.4,69.3,55.0,47.7,42.3,36.9,65,41,20,29.86,29.68,8,2,12,0.00
2012-6-3,93.6,76.5,59.0,55.6,48.4,40.7,73,42,17,29.83,29.68,5,1,8,0.00
2012-6-4,99.9,78.8,64.8,71.4,56.6,47.5,80,51,18,29.77,29.62,10,2,13,0.09
2012-6-5,87.4,75.6,62.4,53.4,43.1,34.4,61,34,16,29.86,29.77,10,2,17,0.00
2012-6-6,84.6,72.8,61.2,46.1,37.4,22.6,56,30,11,29.98,29.86,8,2,11,0.00
2012-6-7,88.0,74.0,57.2,51.8,37.7,17.3,69,33,8,30.04,29.95,8,1,13,0.00
2012-6-8,95.2,77.6,59.4,54.1,34.9,6.2,69,30,4,30.01,29.83,8,1,10,0.00
2012-6-9,96.3,79.8,60.8,52.7,46.4,40.8,65,34,17,29.92,29.77,8,1,13,0.00
2012-6-10,91.4,80.6,68.0,62.3,53.6,45.7,62,41,28,29.92,29.80,8,2,11,0.00
2012-6-11,84.4,73.3,69.3,72.3,66.9,61.7,98,81,53,29.98,29.77,8,1,14,2.33
2012-6-12,88.7,75.2,63.3,67.1,43.1,9.2,95,44,6,30.18,29.92,8,2,11,0.00
2012-6-13,87.4,72.3,56.7,51.5,42.6,36.1,72,39,18,30.36,30.01,8,2,8,0.00
2012-6-14,93.6,77.3,59.4,56.8,46.8,35.6,75,39,14,30.45,29.98,8,1,10,0.00
2012-6-15,96.1,80.0,64.2,58.5,51.1,41.5,74,41,17,30.80,30.06,8,1,11,0.00
2012-6-16,99.5,86.1,65.1,69.8,54.7,44.4,94,37,18,31.39,29.86,12,1,26,0.24
2012-6-17,93.7,80.5,69.3,71.4,65.1,57.2,98,65,32,31.48,30.51,8,1,10,0.04
2012-6-18,99.5,86.3,74.3,62.6,56.0,44.7,62,39,17,31.48,31.48,6,2,11,0.00
2012-6-19,98.8,86.7,74.8,62.2,55.6,46.8,63,37,20,31.48,31.48,8,2,12,0.00
2012-6-20,100.0,86.6,72.9,56.8,49.6,43.2,45,30,16,31.48,31.48,7,1,10,0.00
2012-6-21,92.3,81.8,72.3,58.4,54.7,48.0,56,40,28,31.48,31.48,8,2,11,0.00
2012-6-22,93.7,79.6,65.7,60.5,47.9,31.3,75,39,14,31.48,31.48,8,1,10,0.00
2012-6-23,97.0,79.7,63.9,58.3,46.7,37.0,72,36,16,31.48,31.48,8,1,10,0.00
2012-6-24,103.5,85.7,67.1,57.1,48.6,32.8,62,32,12,31.48,29.77,7,1,9,0.00
2012-6-25,94.1,83.9,73.4,61.9,50.4,21.9,59,34,12,29.86,29.77,9,3,13,0.00
2012-6-26,90.5,77.2,63.5,46.1,38.6,17.4,51,28,7,29.92,29.80,8,2,13,0.00
2012-6-27,102.9,82.5,60.1,53.0,32.3,-4.5,65,27,2,29.89,29.74,5,1,10,0.00
2012-6-28,115.0,92.2,69.3,57.0,27.1,-5.0,50,19,2,29.86,29.77,8,2,11,0.00
2012-6-29,111.2,93.3,73.8,58.1,38.2,-0.9,47,22,2,29.83,29.68,6,1,9,0.00
2012-6-30,110.5,93.7,76.8,59.7,41.0,-1.3,49,24,2,29.80,29.68,8,1,10,0.00
2012-7-1,106.5,91.3,76.8,64.1,53.2,34.1,59,32,9,29.86,29.74,7,1,11,0.00
2012-7-2,104.4,87.0,75.9,65.5,56.6,26.8,66,40,9,29.89,29.83,8,1,13,0.00
2012-7-3,106.2,89.7,73.4,65.4,57.1,28.1,70,39,7,29.89,29.74,8,1,12,0.00
2012-7-4,110.5,94.9,80.8,65.8,38.3,-2.3,55,25,2,29.86,29.77,8,1,11,0.00
2012-7-5,111.2,94.9,77.5,63.9,41.1,-0.2,58,25,2,29.89,29.77,6,1,8,0.00
2012-7-6,109.6,95.7,81.1,65.8,44.8,1.3,54,25,2,29.89,29.80,8,1,11,0.00
2012-7-7,110.5,94.0,78.4,69.7,48.8,2.1,73,31,2,29.92,29.77,10,1,15,0.00
2012-7-8,104.5,88.1,71.1,70.7,63.1,52.0,98,49,18,29.92,29.80,12,2,22,2.00
2012-7-9,92.8,83.2,73.8,76.0,62.0,48.8,98,55,28,29.92,29.83,8,1,10,0.00
2012-7-10,98.2,85.0,71.2,62.9,51.4,25.8,71,37,8,29.92,29.86,8,2,13,0.00
2012-7-11,97.3,84.7,72.7,55.4,50.4,37.8,46,32,13,29.98,29.89,8,2,11,0.00
2012-7-12,99.0,85.9,72.1,64.4,55.5,44.6,68,39,16,29.92,29.86,8,1,11,0.00
2012-7-13,96.4,84.3,73.2,68.5,61.9,56.6,77,50,27,29.95,29.86,8,1,11,0.00
2012-7-14,94.1,83.4,73.4,68.9,64.7,60.0,77,55,36,29.98,29.89,7,1,9,0.00
2012-7-15,98.8,86.4,72.9,70.4,62.6,53.3,82,49,23,30.01,29.89,8,1,10,0.00
2012-7-16,100.4,89.2,77.7,71.2,63.4,56.5,75,45,25,29.95,29.77,7,1,10,0.00
2012-7-17,104.7,91.7,80.2,67.6,61.4,47.3,62,40,16,29.83,29.74,6,1,10,0.00
2012-7-18,109.6,92.6,79.5,76.4,57.5,10.5,85,40,3,29.86,29.74,8,1,11,0.13
2012-7-19,106.0,90.8,78.6,74.6,59.9,40.4,83,42,11,29.86,29.71,7,2,11,0.00
2012-7-20,88.5,82.8,77.0,67.2,61.6,57.0,70,50,36,29.95,29.80,8,3,12,0.00
2012-7-21,97.0,83.2,70.2,66.8,54.8,42.0,79,43,16,30.01,29.92,8,1,11,0.00
2012-7-22,101.5,87.3,72.5,60.0,52.3,38.8,61,34,12,30.01,29.89,8,1,11,0.00
2012-7-23,108.1,93.7,78.3,67.3,52.8,15.8,64,32,4,29.98,29.83,8,2,11,0.00
2012-7-24,109.4,95.5,82.8,62.0,53.0,23.5,44,27,6,29.89,29.74,8,1,11,0.00
2012-7-25,110.5,97.0,83.8,61.4,41.5,-0.7,46,22,2,29.77,29.59,8,2,13,0.00
2012-7-26,99.5,90.7,80.4,67.6,57.8,50.2,65,35,20,29.77,29.62,7,2,14,0.00
2012-7-27,104.5,89.0,75.4,68.1,47.5,-2.6,74,35,2,29.89,29.77,9,2,15,0.00
2012-7-28,97.3,84.6,70.9,58.6,47.1,18.9,62,31,8,30.01,29.89,8,2,12,0.00
2012-7-29,85.5,76.7,71.1,76.2,64.7,52.8,98,68,43,30.01,29.83,6,1,9,0.25
2012-7-30,88.3,80.9,73.6,68.3,65.4,60.8,79,61,41,29.83,29.77,7,1,9,0.00
2012-7-31,102.7,87.5,72.1,71.8,61.2,45.2,89,49,16,29.86,29.74,7,1,9,0.00
2012-8-1,102.0,89.4,77.7,65.7,55.0,33.7,64,35,11,29.83,29.71,7,2,10,0.00
2012-8-2,99.5,85.6,74.3,69.7,59.3,47.1,75,43,25,29.77,29.62,9,1,13,0.00
2012-8-3,100.9,87.8,75.6,71.0,66.1,58.6,80,53,26,29.71,29.68,8,2,10,0.00
2012-8-4,97.0,84.1,74.7,79.5,71.3,60.2,98,69,30,29.86,29.71,13,1,20,0.45
2012-8-5,93.6,81.1,74.3,75.1,58.5,39.7,98,56,17,30.04,29.83,8,1,11,0.04
2012-8-6,98.8,82.5,67.5,60.8,50.6,26.6,71,39,11,30.04,29.89,7,1,9,0.00
2012-8-7,101.1,84.3,67.5,62.4,45.3,-2.6,74,36,2,29.92,29.83,7,0,8,0.00
2012-8-8,104.4,86.4,71.4,61.5,48.1,-1.4,66,33,2,29.89,29.77,14,2,23,0.00
2012-8-9,99.7,83.9,72.3,63.4,54.0,38.4,71,41,13,29.86,29.65,9,2,15,0.00
2012-8-10,82.6,75.1,68.4,60.7,51.0,43.6,71,45,27,29.89,29.74,8,3,14,0.00
2012-8-11,91.2,76.0,60.6,56.1,37.0,8.5,72,34,5,29.95,29.86,8,1,11,0.00
2012-8-12,86.5,73.7,63.0,55.4,48.5,40.0,68,43,21,29.92,29.80,8,1,11,0.00
2012-8-13,83.8,73.6,65.5,65.4,58.1,47.1,96,61,37,29.89,29.74,9,2,13,0.25
2012-8-14,83.3,74.3,65.3,60.7,53.3,46.3,79,51,30,29.92,29.83,7,1,8,0.00
2012-8-15,93.2,76.8,62.2,60.3,51.5,41.1,80,47,17,29.92,29.74,8,1,10,0.00
2012-8-16,101.8,80.8,70.7,73.1,59.7,49.6,91,54,18,29.86,29.65,9,1,14,0.04
2012-8-17,87.1,73.8,64.2,63.1,40.1,8.7,78,36,6,29.95,29.86,8,2,10,0.00
2012-8-18,86.7,72.4,57.9,54.3,37.2,9.0,71,35,6,29.92,29.80,7,1,13,0.00
2012-8-19,86.7,74.2,65.5,52.9,43.3,28.0,59,36,13,29.86,29.80,8,1,11,0.00
2012-8-20,90.0,73.6,58.6,52.6,39.0,8.5,70,37,5,29.92,29.83,8,1,12,0.00
2012-8-21,95.2,76.1,60.6,54.8,38.8,6.1,70,35,4,29.95,29.86,8,1,12,0.00
2012-8-22,96.6,79.0,62.6,54.8,36.3,-6.3,67,31,4,29.98,29.89,8,1,10,0.00
2012-8-23,99.9,82.4,65.5,56.7,34.8,-6.8,64,28,2,29.98,29.86,8,1,10,0.00
2012-8-24,99.5,84.0,70.2,53.6,37.3,-3.5,50,25,2,29.95,29.86,7,1,10,0.00
2012-8-25,92.8,77.7,68.5,72.8,58.9,49.3,93,57,26,29.92,29.86,9,1,13,0.12
2012-8-26,92.8,79.5,71.1,76.0,65.8,55.7,98,68,30,29.95,29.83,8,1,14,0.29
2012-8-27,90.1,79.4,71.8,75.7,64.5,48.6,98,67,27,30.01,29.86,8,2,12,0.00
2012-8-28,94.5,80.1,64.8,62.5,52.7,43.1,79,45,18,30.01,29.89,10,1,14,0.00
2012-8-29,93.4,79.7,65.7,61.9,52.0,42.0,77,43,18,29.98,29.83,9,2,13,0.00
2012-8-30,98.4,83.1,67.8,61.1,49.1,18.3,71,38,6,29.92,29.80,8,1,11,0.00
2012-8-31,81.1,77.3,74.5,78.9,71.3,61.1,98,83,51,29.95,29.77,8,1,13,0.21
2012-9-1,80.1,76.4,74.5,78.1,75.1,72.2,98,96,85,29.77,29.65,9,1,13,0.00
2012-9-2,82.2,76.9,74.5,78.1,73.7,68.9,98,90,67,29.74,29.65,10,2,14,0.37
2012-9-3,87.4,78.9,74.8,73.1,69.0,62.5,91,74,44,29.80,29.71,7,1,9,0.00
2012-9-4,93.4,81.0,72.0,74.0,64.5,53.3,92,62,27,29.83,29.71,5,0,8,0.00
2012-9-5,85.8,76.8,70.7,73.2,67.7,59.9,96,74,51,29.80,29.71,9,1,14,0.00
2012-9-6,95.9,78.2,67.6,74.1,63.6,52.6,91,65,30,29.86,29.77,14,0,19,0.00
2012-9-7,97.3,76.2,66.7,70.8,61.5,55.7,98,66,26,29.80,29.53,9,1,15,0.29
2012-9-8,76.8,66.8,59.2,64.8,47.0,35.1,90,54,23,29.95,29.80,10,3,15,0.00
2012-9-9,77.9,66.6,58.1,48.7,43.4,36.4,69,46,23,30.04,29.83,8,2,12,0.00
2012-9-10,81.9,67.4,53.8,56.0,45.8,39.1,83,51,23,30.12,30.01,7,1,10,0.00
2012-9-11,86.4,71.4,56.8,57.9,48.8,42.2,83,50,22,30.06,29.95,9,1,10,0.00
2012-9-12,91.2,73.8,59.4,57.7,49.3,39.1,81,47,18,30.09,30.01,6,1,11,0.00
2012-9-13,88.9,72.5,61.7,61.4,52.0,45.5,81,52,23,30.18,30.04,9,2,15,0.00
2012-9-14,68.4,62.9,59.0,61.6,54.4,49.0,98,75,54,30.24,30.15,8,2,11,0.16
2012-9-15,69.3,62.5,53.1,56.2,48.5,41.9,91,63,38,30.21,30.04,6,1,8,0.00
2012-9-16,73.2,67.7,63.0,60.2,56.3,51.0,81,67,56,30.04,29.89,5,0,6,0.00
2012-9-17,76.3,69.3,63.3,68.5,62.9,58.4,91,81,59,29.89,29.68,8,0,15,0.05
2012-9-18,71.8,60.1,51.1,58.6,39.7,26.3,86,53,22,29.98,29.74,9,2,15,0.04
2012-9-19,78.3,62.3,46.6,48.7,38.2,30.8,84,47,18,30.04,29.86,6,1,9,0.00
2012-9-20,82.2,67.4,56.8,50.0,32.0,-1.2,64,35,4,29.89,29.83,8,2,14,0.00
2012-9-21,85.3,68.9,55.6,52.4,42.6,31.3,64,41,21,29.92,29.59,8,2,13,0.00
2012-9-22,72.0,61.5,49.8,48.9,27.1,0.3,75,35,6,30.12,29.80,10,2,13,0.00
2012-9-23,71.2,55.8,43.3,40.5,29.6,12.8,72,41,12,30.21,30.12,7,1,10,0.00
2012-9-24,74.1,57.8,42.6,41.1,33.6,19.7,78,48,13,30.15,29.86,8,1,12,0.00
2012-9-25,89.2,70.0,59.2,68.3,53.3,41.1,98,59,29,29.86,29.68,10,1,14,0.33
2012-9-26,76.1,69.1,65.1,73.2,65.9,62.1,98,90,70,29.98,29.80,8,0,13,0.91
2012-9-27,70.0,67.2,63.7,68.3,62.6,58.1,98,86,71,30.06,29.98,5,1,8,0.00
2012-9-28,72.7,62.5,54.9,60.7,48.6,37.0,93,65,32,30.09,29.98,8,1,9,0.00
2012-9-29,75.2,61.7,50.5,54.2,43.8,33.3,90,57,23,30.04,29.89,8,1,10,0.00
2012-9-30,73.9,63.1,53.4,54.9,45.2,35.0,87,56,26,29.89,29.74,8,1,9,0.00
2012-10-1,66.4,61.0,56.7,44.5,40.1,36.5,62,47,35,29.74,29.65,7,1,11,0.00
2012-10-2,73.4,61.8,50.7,57.7,43.0,37.7,78,53,30,29.80,29.68,8,2,11,0.00
2012-10-3,78.1,66.7,59.7,53.2,49.0,40.6,78,56,28,29.95,29.80,5,0,8,0.00
2012-10-4,82.9,68.1,56.8,57.7,48.5,38.8,86,53,28,30.09,29.95,8,1,10,0.00
2012-10-5,57.2,49.1,40.8,48.4,42.9,35.4,98,82,49,30.12,30.04,8,2,10,0.00
2012-10-6,49.6,43.7,37.9,41.0,32.4,25.0,98,68,40,30.15,30.09,7,1,9,0.00
2012-10-7,56.7,46.0,37.8,37.3,27.0,18.7,77,50,25,30.18,30.06,8,2,11,0.00
2012-10-8,63.1,48.1,34.5,38.2,29.2,23.2,87,53,24,30.12,29.95,7,1,10,0.00
2012-10-9,69.3,54.9,41.9,42.9,36.0,30.8,81,52,27,29.98,29.83,8,1,13,0.00
2012-10-10,59.7,48.9,40.8,41.3,29.6,16.1,80,52,19,30.18,29.92,10,2,15,0.00
2012-10-11,65.8,52.0,37.0,47.2,32.7,27.0,81,52,26,30.15,30.04,5,1,8,0.00
2012-10-12,64.9,57.1,50.0,51.8,42.7,37.4,90,61,38,30.27,30.09,9,2,13,0.00
2012-10-13,78.8,66.1,52.7,60.4,55.3,45.2,93,71,41,30.12,29.68,7,1,13,0.00
2012-10-14,72.3,65.0,54.5,66.0,55.6,43.7,98,74,43,29.86,29.53,13,3,17,0.00
2012-10-15,69.4,57.5,48.2,51.1,40.4,30.9,83,58,25,29.92,29.83,6,1,10,0.00
2012-10-16,80.6,63.4,48.7,49.4,41.8,32.8,84,52,21,29.86,29.53,5,1,10,0.00
2012-10-17,68.4,62.2,54.5,59.8,51.8,40.1,98,71,44,29.56,29.30,11,2,15,0.41
2012-10-18,62.4,54.4,46.6,53.8,33.4,23.2,98,52,24,29.56,29.47,12,3,19,0.00
2012-10-19,55.8,51.9,48.7,41.9,36.7,30.4,75,57,42,29.71,29.47,10,4,17,0.00
2012-10-20,65.1,54.9,50.2,41.8,38.5,34.7,70,56,34,29.83,29.71,8,1,10,0.00
2012-10-21,77.0,62.2,48.0,56.5,46.8,40.6,83,60,32,29.86,29.77,8,1,10,0.00
2012-10-22,70.2,67.2,62.4,69.0,61.4,51.4,98,82,63,29.86,29.80,4,0,7,0.33
2012-10-23,73.9,67.6,63.0,69.0,58.7,54.1,98,74,51,29.89,29.77,6,1,9,0.04
2012-10-24,81.3,71.2,63.7,59.7,55.3,52.1,76,59,39,29.89,29.77,6,1,12,0.00
2012-10-25,81.9,65.7,46.2,57.3,51.4,36.7,95,63,36,30.06,29.68,13,2,20,0.00
2012-10-26,49.6,44.4,39.6,41.1,25.3,20.8,81,48,36,30.24,30.06,10,4,16,0.00
2012-10-27,50.4,42.8,35.1,25.7,22.7,20.2,60,45,35,30.21,30.12,9,3,13,0.00
2012-10-28,51.3,43.2,35.6,26.5,23.6,21.3,61,46,36,30.18,30.12,8,2,13,0.00
2012-10-29,52.7,42.3,32.2,27.8,23.0,14.0,74,49,26,30.21,30.04,7,1,11,0.00
2012-10-30,56.5,46.3,37.6,25.5,19.5,15.8,45,35,22,30.04,29.77,68,3,108,0.00
2012-10-31,54.1,44.8,37.0,22.6,14.6,-1.5,53,32,10,29.89,29.83,10,2,17,0.00
2012-11-1,63.1,48.1,35.2,36.8,24.7,13.0,61,41,26,29.92,29.77,6,1,10,0.00
2012-11-2,54.7,47.5,39.9,34.9,26.5,23.7,65,45,31,30.01,29.80,8,1,10,0.00
2012-11-3,53.2,47.4,41.4,33.2,28.8,26.6,69,49,38,30.09,29.92,9,3,12,0.00
2012-11-4,51.4,42.3,32.5,33.6,27.8,23.4,82,59,36,30.15,30.04,7,1,9,0.00
2012-11-5,45.5,43.7,42.3,43.0,36.6,28.6,92,77,55,30.06,29.98,8,2,8,0.00
2012-11-6,48.2,45.3,41.0,42.8,39.0,35.5,84,79,65,29.98,29.83,7,1,10,0.00
2012-11-7,49.5,45.2,35.1,41.3,31.7,27.1,83,60,47,30.09,29.83,8,2,11,0.00
2012-11-8,55.4,43.2,31.3,37.8,29.7,25.4,87,61,37,30.15,29.98,8,1,13,0.00
2012-11-9,68.5,57.0,41.5,47.4,40.1,32.8,77,55,38,29.98,29.83,6,1,11,0.00
2012-11-10,75.9,64.7,56.1,44.9,38.5,24.8,51,40,15,29.92,29.80,7,2,13,0.00
2012-11-11,68.9,59.6,40.5,57.6,47.3,39.8,98,68,44,30.01,29.71,10,3,18,0.00
2012-11-12,43.2,36.8,29.5,39.8,20.7,13.1,98,55,31,30.33,29.98,12,4,17,0.00
2012-11-13,46.2,36.5,27.0,29.5,19.8,13.4,80,53,30,30.45,30.33,7,1,9,0.00
2012-11-14,46.8,37.3,30.6,27.1,20.9,16.8,71,53,31,30.39,30.24,7,1,9,0.00
2012-11-15,50.4,38.3,28.0,31.8,23.5,19.7,79,58,32,30.30,30.21,3,0,4,0.00
2012-11-16,54.0,41.2,31.5,33.2,25.8,22.8,80,57,31,30.36,30.27,0,0,0,0.00
2012-11-17,55.0,41.2,29.1,34.4,26.1,22.4,80,58,28,30.42,30.30,0,0,0,0.00
2012-11-18,57.9,42.7,30.2,35.6,26.5,22.1,84,56,27,30.30,30.18,0,0,0,0.00
2012-11-19,58.5,48.5,38.1,35.7,30.8,27.1,75,52,36,30.18,30.04,0,0,120,0.00
2012-11-20,59.7,50.7,39.7,47.9,37.6,31.3,86,62,38,30.09,29.98,0,0,119,0.00
2012-11-21,59.2,48.9,41.9,51.9,42.5,37.1,95,79,52,30.18,30.04,0,0,119,0.00
2012-11-22,66.7,54.3,40.3,52.9,41.6,34.2,97,68,30,30.04,29.83,0,0,119,0.05
2012-11-23,55.2,41.1,30.2,40.7,19.5,9.0,63,43,29,30.27,29.98,0,0,119,0.00
2012-11-24,37.6,31.3,24.8,16.2,11.4,8.1,52,43,34,30.24,29.95,0,0,119,0.00
2012-11-25,57.2,43.1,32.5,33.4,19.7,14.5,62,40,25,29.95,29.80,0,0,119,0.00
2012-11-26,45.7,39.0,31.8,23.0,19.6,12.4,57,46,34,30.27,29.95,0,0,119,0.00
2012-11-27,38.1,30.7,23.5,26.3,12.9,8.4,72,48,36,30.36,30.21,0,0,119,0.00
2012-11-28,47.1,34.2,24.3,21.4,18.0,14.4,72,53,35,30.36,30.21,0,0,119,0.00
2012-11-29,58.8,43.5,29.8,30.4,22.6,18.0,74,47,25,30.21,30.01,0,0,119,0.00
2012-11-30,63.3,51.0,40.3,34.5,29.2,21.9,57,43,34,30.04,29.95,0,0,119,0.00
2012-12-1,68.7,57.2,44.1,50.2,42.7,32.0,88,60,43,30.01,29.86,0,0,119,0.00
2012-12-2,73.2,65.6,61.0,57.8,51.5,44.7,85,62,42,29.92,29.83,0,0,119,0.00
2012-12-3,71.1,65.6,61.7,60.0,53.7,46.5,89,67,42,29.92,29.77,0,0,119,0.00
2012-12-4,63.9,51.8,38.8,54.7,41.8,30.5,98,70,40,30.18,29.83,0,0,119,0.12
2012-12-5,54.3,43.0,35.1,36.3,30.1,26.8,86,63,37,30.27,30.06,0,0,119,0.00
2012-12-6,53.1,44.2,34.9,36.8,32.3,27.3,80,64,47,30.06,29.83,0,0,119,0.00
2012-12-7,59.5,52.3,45.5,52.1,44.2,36.8,88,74,58,29.83,29.71,0,0,119,0.04
2012-12-8,50.5,47.1,44.4,48.7,43.5,37.5,98,88,74,29.89,29.77,0,0,119,0.04
2012-12-9,53.1,47.2,39.2,52.5,44.1,28.4,98,89,61,29.83,29.68,0,0,119,0.05
2012-12-10,39.0,30.5,27.5,29.7,14.8,11.4,69,52,44,29.98,29.80,0,0,119,0.00
2012-12-11,39.4,29.6,21.7,16.8,12.9,10.7,70,51,32,30.12,29.98,0,0,119,0.00
2012-12-12,47.3,34.2,22.8,22.5,16.4,13.5,75,50,28,30.24,30.12,0,0,119,0.00
2012-12-13,52.3,38.9,25.5,23.5,16.8,12.9,72,44,21,30.21,30.06,0,0,119,0.00
2012-12-14,55.6,42.7,29.8,33.2,22.2,15.9,67,46,28,30.12,29.86,0,0,119,0.00
2012-12-15,59.2,50.0,43.9,52.7,45.4,33.6,98,85,58,29.86,29.50,0,0,119,0.30